TimeMST,TemperatureF,Dew PointF,Humidity,Sea Level PressureIn,VisibilityMPH,Wind Direction,Wind SpeedMPH,Gust SpeedMPH,PrecipitationIn,Events,Conditions,WindDirDegrees,DateUTC
12:53 AM,23.0,18.0,81,29.97,10.0,SSE,11.5,-,N/A,,Clear,160,2013-02-22 07:53:00
1:53 AM,21.0,18.0,88,29.97,10.0,SSE,8.1,-,N/A,,Clear,160,2013-02-22 08:53:00
2:53 AM,19.9,17.1,89,29.96,10.0,SSE,5.8,-,N/A,,Clear,160,2013-02-22 09:53:00
3:53 AM,19.9,16.0,85,29.95,10.0,SSE,6.9,-,N/A,,Clear,160,2013-02-22 10:53:00
4:53 AM,19.0,15.1,85,29.96,10.0,SSE,6.9,-,N/A,,Clear,150,2013-02-22 11:53:00
5:53 AM,18.0,14.0,84,29.97,10.0,SE,6.9,-,N/A,,Clear,140,2013-02-22 12:53:00
6:53 AM,19.0,15.1,85,29.98,10.0,SSE,9.2,-,N/A,,Mostly Cloudy,150,2013-02-22 13:53:00
7:53 AM,21.0,17.1,85,29.99,10.0,SSE,6.9,-,N/A,,Overcast,150,2013-02-22 14:53:00
8:53 AM,24.1,19.9,84,29.97,10.0,SSE,5.8,-,N/A,,Clear,160,2013-02-22 15:53:00
9:53 AM,30.0,21.0,69,29.96,10.0,SW,5.8,-,N/A,,Clear,220,2013-02-22 16:53:00
10:53 AM,37.9,21.9,53,29.94,10.0,West,11.5,-,N/A,,Clear,270,2013-02-22 17:53:00
11:53 AM,41.0,19.9,43,29.91,10.0,WSW,9.2,-,N/A,,Clear,250,2013-02-22 18:53:00
12:53 PM,43.0,19.0,38,29.88,10.0,WSW,9.2,-,N/A,,Clear,250,2013-02-22 19:53:00
1:53 PM,44.1,18.0,35,29.84,10.0,West,13.8,18.4,N/A,,Partly Cloudy,260,2013-02-22 20:53:00
2:53 PM,44.1,16.0,32,29.83,10.0,WSW,10.4,18.4,N/A,,Mostly Cloudy,250,2013-02-22 21:53:00
3:53 PM,44.1,16.0,32,29.82,10.0,WSW,12.7,-,N/A,,Partly Cloudy,240,2013-02-22 22:53:00
4:53 PM,43.0,17.1,35,29.81,10.0,SW,8.1,-,N/A,,Scattered Clouds,230,2013-02-22 23:53:00
5:53 PM,37.0,17.1,44,29.81,10.0,South,6.9,-,N/A,,Partly Cloudy,180,2013-02-23 00:53:00
6:53 PM,37.0,19.0,48,29.81,10.0,South,8.1,-,N/A,,Overcast,190,2013-02-23 01:53:00
7:53 PM,30.9,19.0,61,29.79,10.0,SSE,6.9,-,N/A,,Mostly Cloudy,150,2013-02-23 02:53:00
8:53 PM,28.9,19.9,69,29.78,10.0,SSE,6.9,-,N/A,,Clear,150,2013-02-23 03:53:00
9:53 PM,28.0,19.0,69,29.75,10.0,SSE,6.9,-,N/A,,Clear,160,2013-02-23 04:53:00
10:53 PM,28.0,19.0,69,29.72,10.0,SSE,9.2,-,N/A,,Clear,150,2013-02-23 05:53:00
11:53 PM,27.0,18.0,69,29.70,10.0,SSE,9.2,-,N/A,,Clear,160,2013-02-23 06:53:00